TimeEST,TemperatureF,Dew PointF,Humidity,Sea Level PressureIn,VisibilityMPH,Wind Direction,Wind SpeedMPH,Gust SpeedMPH,PrecipitationIn,Events,Conditions,WindDirDegrees,DateUTC
12:14 AM,23.5,19.6,85,30.50,10.0,Calm,Calm,-,N/A,,Clear,0,2012-11-14 05:14:00
12:33 AM,22.3,19.0,87,30.51,10.0,Calm,Calm,-,N/A,,Clear,0,2012-11-14 05:33:00
12:53 AM,21.7,18.7,88,30.51,10.0,Calm,Calm,-,N/A,,Clear,0,2012-11-14 05:53:00
1:14 AM,22.3,19.0,87,30.51,10.0,Calm,Calm,-,N/A,,Clear,0,2012-11-14 06:14:00
1:33 AM,22.6,19.4,87,30.51,10.0,Calm,Calm,-,N/A,,Clear,0,2012-11-14 06:33:00
1:53 AM,23.4,19.4,85,30.51,10.0,Calm,Calm,-,N/A,,Clear,0,2012-11-14 06:53:00
2:14 AM,22.3,18.9,87,30.51,10.0,Calm,Calm,-,N/A,,Clear,0,2012-11-14 07:14:00
2:33 AM,22.3,19.0,87,30.51,10.0,Calm,Calm,-,N/A,,Clear,0,2012-11-14 07:33:00
2:53 AM,21.6,18.7,89,30.52,10.0,Calm,Calm,-,N/A,,Clear,0,2012-11-14 07:53:00
3:14 AM,22.5,19.6,89,30.52,10.0,Calm,Calm,-,N/A,,Clear,0,2012-11-14 08:14:00
3:33 AM,20.7,17.6,88,30.53,10.0,Calm,Calm,-,N/A,,Clear,0,2012-11-14 08:33:00
3:54 AM,21.0,18.1,89,30.53,10.0,Calm,Calm,-,N/A,,Clear,0,2012-11-14 08:54:00
4:14 AM,20.8,18.1,89,30.53,10.0,Calm,Calm,-,N/A,,Clear,0,2012-11-14 09:14:00
4:33 AM,20.8,18.1,89,30.53,10.0,Calm,Calm,-,N/A,,Clear,0,2012-11-14 09:33:00
4:54 AM,20.5,17.6,89,30.53,10.0,Calm,Calm,-,N/A,,Clear,0,2012-11-14 09:54:00
5:14 AM,20.5,17.6,89,30.53,10.0,Calm,Calm,-,N/A,,Clear,0,2012-11-14 10:14:00
5:33 AM,20.8,18.1,89,30.53,10.0,Calm,Calm,-,N/A,,Clear,0,2012-11-14 10:33:00
5:54 AM,19.9,17.2,89,30.54,10.0,Calm,Calm,-,N/A,,Clear,0,2012-11-14 10:54:00
6:14 AM,20.3,17.6,89,30.54,10.0,Calm,Calm,-,N/A,,Clear,0,2012-11-14 11:14:00
6:33 AM,20.7,18.0,89,30.54,10.0,Calm,Calm,-,N/A,,Clear,0,2012-11-14 11:33:00
6:54 AM,20.5,18.0,90,30.53,10.0,Calm,Calm,-,N/A,,Clear,0,2012-11-14 11:54:00
7:13 AM,20.1,17.4,89,30.53,10.0,Calm,Calm,-,N/A,,Clear,0,2012-11-14 12:13:00
7:33 AM,21.4,18.3,88,30.54,10.0,Calm,Calm,-,N/A,,Clear,0,2012-11-14 12:33:00
7:54 AM,21.0,18.1,89,30.54,10.0,Calm,Calm,-,N/A,,Clear,0,2012-11-14 12:54:00
8:13 AM,23.4,19.9,87,30.54,10.0,Calm,Calm,-,N/A,,Clear,0,2012-11-14 13:13:00
8:33 AM,24.1,20.7,87,30.55,10.0,Calm,Calm,-,N/A,,Clear,0,2012-11-14 13:33:00
8:54 AM,26.4,21.6,82,30.55,10.0,Calm,Calm,-,N/A,,Scattered Clouds,0,2012-11-14 13:54:00
9:13 AM,28.4,22.6,79,30.55,10.0,ESE,3.5,-,N/A,,Scattered Clouds,120,2012-11-14 14:13:00
9:33 AM,29.7,23.9,79,30.55,10.0,Calm,Calm,-,N/A,,Clear,0,2012-11-14 14:33:00
9:54 AM,31.1,23.5,74,30.55,10.0,Calm,Calm,-,N/A,,Scattered Clouds,0,2012-11-14 14:54:00
10:13 AM,32.5,23.5,69,30.55,10.0,ESE,4.6,-,N/A,,Clear,120,2012-11-14 15:13:00
10:33 AM,33.8,23.0,65,30.55,10.0,ESE,3.5,-,N/A,,Clear,120,2012-11-14 15:33:00
10:54 AM,35.4,23.4,62,30.55,10.0,South,4.6,-,N/A,,Clear,180,2012-11-14 15:54:00
11:13 AM,35.8,22.6,59,30.55,10.0,SE,5.8,-,N/A,,Clear,130,2012-11-14 16:13:00
11:34 AM,35.8,21.7,57,30.54,10.0,South,3.5,-,N/A,,Clear,170,2012-11-14 16:34:00
11:53 AM,37.0,22.6,56,30.53,10.0,ESE,8.1,-,N/A,,Clear,120,2012-11-14 16:53:00
12:14 PM,37.6,22.6,55,30.52,10.0,ESE,5.8,-,N/A,,Clear,120,2012-11-14 17:14:00
12:34 PM,37.6,22.8,55,30.51,10.0,SSE,4.6,-,N/A,,Clear,150,2012-11-14 17:34:00
12:53 PM,37.9,22.8,55,30.50,10.0,ESE,6.9,-,N/A,,Clear,110,2012-11-14 17:53:00
1:14 PM,38.3,23.2,55,30.50,10.0,SE,6.9,-,N/A,,Scattered Clouds,130,2012-11-14 18:14:00
1:33 PM,38.5,22.6,53,30.49,10.0,South,6.9,-,N/A,,Scattered Clouds,170,2012-11-14 18:33:00
1:54 PM,38.8,23.5,54,30.48,10.0,SE,5.8,-,N/A,,Clear,140,2012-11-14 18:54:00
2:13 PM,39.6,23.4,52,30.47,10.0,ESE,4.6,-,N/A,,Clear,110,2012-11-14 19:13:00
2:33 PM,40.3,23.7,52,30.47,10.0,South,5.8,-,N/A,,Scattered Clouds,170,2012-11-14 19:33:00
2:54 PM,40.5,23.5,51,30.46,10.0,SSW,4.6,-,N/A,,Clear,200,2012-11-14 19:54:00
3:13 PM,40.6,23.2,50,30.45,10.0,SE,5.8,-,N/A,,Clear,140,2012-11-14 20:13:00
3:34 PM,39.9,23.4,52,30.45,10.0,SE,4.6,-,N/A,,Clear,130,2012-11-14 20:34:00
3:54 PM,39.6,23.0,52,30.45,10.0,SSE,3.5,-,N/A,,Clear,150,2012-11-14 20:54:00
4:13 PM,39.6,23.2,52,30.45,10.0,ESE,4.6,-,N/A,,Clear,120,2012-11-14 21:13:00
4:34 PM,38.8,23.5,54,30.45,10.0,Calm,Calm,-,N/A,,Clear,0,2012-11-14 21:34:00
4:53 PM,37.9,23.5,56,30.45,10.0,Calm,Calm,-,N/A,,Clear,0,2012-11-14 21:53:00
5:13 PM,36.9,23.5,59,30.45,10.0,SSE,3.5,-,N/A,,Clear,150,2012-11-14 22:13:00
5:34 PM,35.1,23.5,63,30.44,10.0,Calm,Calm,-,N/A,,Clear,0,2012-11-14 22:34:00
5:53 PM,35.1,23.5,63,30.44,10.0,Calm,Calm,-,N/A,,Clear,0,2012-11-14 22:53:00
6:13 PM,35.1,23.5,63,30.44,10.0,Calm,Calm,-,N/A,,Clear,0,2012-11-14 23:13:00
6:34 PM,33.4,24.8,71,30.45,10.0,Calm,Calm,-,N/A,,Clear,0,2012-11-14 23:34:00
6:53 PM,34.3,24.6,68,30.44,10.0,Calm,Calm,-,N/A,,Clear,0,2012-11-14 23:53:00
7:13 PM,34.2,25.2,70,30.43,10.0,ESE,3.5,-,N/A,,Clear,120,2012-11-15 00:13:00
7:34 PM,34.2,25.2,70,30.43,10.0,ESE,3.5,-,N/A,,Clear,120,2012-11-15 00:34:00
7:53 PM,33.8,25.2,71,30.43,10.0,Calm,Calm,-,N/A,,Clear,0,2012-11-15 00:53:00
8:13 PM,34.3,24.8,68,30.43,10.0,Calm,Calm,-,N/A,,Clear,0,2012-11-15 01:13:00
8:34 PM,33.4,25.0,71,30.43,10.0,Calm,Calm,-,N/A,,Clear,0,2012-11-15 01:34:00
8:53 PM,32.5,25.0,74,30.43,10.0,Calm,Calm,-,N/A,,Clear,0,2012-11-15 01:53:00
9:34 PM,31.1,24.8,77,30.43,10.0,Calm,Calm,-,N/A,,Clear,0,2012-11-15 02:34:00
9:53 PM,31.5,25.0,77,30.42,10.0,ESE,3.5,-,N/A,,Clear,120,2012-11-15 02:53:00
10:14 PM,31.1,25.2,79,30.42,10.0,Calm,Calm,-,N/A,,Clear,0,2012-11-15 03:14:00
10:33 PM,30.0,24.4,80,30.41,10.0,Calm,Calm,-,N/A,,Clear,0,2012-11-15 03:33:00
10:53 PM,30.0,25.0,82,30.41,10.0,ESE,3.5,-,N/A,,Clear,120,2012-11-15 03:53:00
11:14 PM,30.0,25.0,82,30.41,10.0,Calm,Calm,-,N/A,,Clear,0,2012-11-15 04:14:00
11:33 PM,29.8,25.2,83,30.41,10.0,Calm,Calm,-,N/A,,Clear,0,2012-11-15 04:33:00
11:53 PM,28.2,23.9,84,30.42,10.0,Calm,Calm,-,N/A,,Clear,0,2012-11-15 04:53:00